EW1970 Weather Reports


Display with metric or nautical units.
time (UTC)temp
F
wind
direction
speed
MPH
gust
MPH
rain 1hr
in
rain 24hr
in
rain mn
in
humidity
%
barometer
mb
20260505041512 72 133 1.0 9.0 0.00 0.00 0.00 82 1009.5
20260505040016 72 151 1.0 6.0 0.00 0.00 0.00 82 1009.5
20260505034519 72 148 1.0 5.0 0.00 0.00 0.00 81 1009.5
20260505033024 72 214 1.0 8.0 0.00 0.00 0.00 81 1009.4
20260505031540 73 111 1.0 6.0 0.00 0.00 0.00 80 1009.4
20260505030014 73 195 0.0 5.0 0.00 0.00 0.00 79 1009.5
20260505024531 73 342 1.0 6.0 0.00 0.00 0.00 78 1009.4
20260505023027 74 145 0.0 5.0 0.00 0.00 0.00 77 1009.3
20260505021527 74 216 0.0 5.0 0.00 0.00 0.00 76 1009.3
20260505020031 74 315 1.0 4.0 0.00 0.00 0.00 74 1009.2
20260505014523 74 262 0.0 4.0 0.00 0.00 0.00 74 1009.2
20260505013004 74 123 0.0 2.0 0.00 0.00 0.00 72 1009.3
20260505011504 75 154 0.0 4.0 0.00 0.00 0.00 70 1009.2
20260505010028 76 244 1.0 6.0 0.00 0.00 0.00 1009.2
20260505004524 77 282 0.0 8.0 0.00 0.00 0.00 67 1009.3
20260505003031 77 314 1.0 11.0 0.00 0.00 0.00 67 1009.2
20260505001504 77 258 1.0 8.0 0.00 0.00 0.00 66 1009.0
20260505000009 78 275 2.0 7.0 0.00 0.00 0.00 66 1009.1
20260504234526 79 208 3.0 9.0 0.00 0.00 0.00 65 1009.3
20260504233016 79 86 2.0 8.0 0.00 0.00 0.00 63 1009.5
20260504231522 79 240 2.0 9.0 0.00 0.00 0.00 64 1009.5
20260504230002 81 78 2.0 11.0 0.00 0.00 0.00 60 1009.5
20260504224509 82 173 3.0 11.0 0.00 0.00 0.00 60 1009.8
20260504223015 81 243 2.0 8.0 0.00 0.00 0.00 60 1009.8
20260504221519 82 25 1.0 10.0 0.00 0.00 0.00 62 1009.9
20260504220024 82 208 1.0 9.0 0.00 0.00 0.00 63 1009.9
20260504214505 82 300 1.0 7.0 0.00 0.00 0.00 64 1009.9
20260504213012 81 96 2.0 9.0 0.00 0.00 0.00 64 1010.3
20260504211530 80 103 1.0 5.0 0.00 0.00 0.00 63 1010.6
20260504210024 82 205 1.0 8.0 0.00 0.00 0.00 64 1011.0
20260504204526 80 236 1.0 8.0 0.00 0.00 0.00 68 1011.2
20260504203010 79 86 1.0 7.0 0.00 0.00 0.00 65 1011.4
20260504201516 81 75 2.0 13.0 0.00 0.00 0.00 63 1011.7
20260504200019 81 180 2.0 8.0 0.00 0.00 0.00 63 1011.8
20260504194525 80 230 2.0 13.0 0.00 0.00 0.00 64 1012.3
20260504193010 81 259 2.0 8.0 0.00 0.00 0.00 61 1012.4
20260504191511 79 255 3.0 9.0 0.00 0.00 0.00 68 1012.7
20260504190003 80 257 2.0 9.0 0.00 0.00 0.00 63 1013.0
20260504184504 79 140 3.0 13.0 0.00 0.00 0.00 62 1012.9
20260504183006 79 276 2.0 7.0 0.00 0.00 0.00 66 1013.4
20260504181510 79 99 2.0 8.0 0.00 0.00 0.00 67 1013.9
20260504180028 78 113 2.0 9.0 0.00 0.00 0.00 64 1013.9
20260504174504 76 213 3.0 11.0 0.00 0.00 0.00 66 1014.0
20260504173006 75 202 1.0 11.0 0.00 0.00 0.00 68 1014.4
20260504171510 74 240 3.0 13.0 0.00 0.00 0.00 70 1014.8
20260504081503 62 311 0.0 3.0 0.00 0.01 0.00 77 1015.7